HB9KBJ-8 Weather Reports


time (UTC)temp
C
wind
direction
speed
KPH
gust
KPH
rain 1hr
cm
rain 24hr
cm
rain mn
cm
humidity
%
barometer
mb
20260506160231 11 155 1.6 3.2 0.00 0.23 0.23 80 1009.4
20260506155727 11 155 1.6 3.2 0.00 0.23 0.23 80 1009.4
20260506155226 11 154 0.0 12.9 0.00 0.23 0.23 80 1009.5
20260506154728 11 158 6.4 12.9 0.00 0.23 0.23 81 1009.4
20260506154228 11 158 3.2 12.9 0.00 0.23 0.23 81 1009.4
20260506153727 11 157 6.4 12.9 0.00 0.23 0.23 82 1009.5
20260506153221 11 155 0.0 0.0 0.00 0.23 0.23 83 1009.5
20260506152721 11 155 0.0 0.0 0.00 0.23 0.23 83 1009.5
20260506152218 11 155 0.0 9.7 0.00 0.23 0.23 83 1009.5
20260506151712 11 155 4.8 9.7 0.00 0.23 0.23 83 1009.5
20260506151218 11 152 0.0 0.0 0.00 0.23 0.23 84 1009.4
20260506150731 11 153 0.0 0.0 0.00 0.23 0.23 83 1009.4
20260506150230 11 152 0.0 0.0 0.00 0.23 0.23 84 1009.5
20260506145725 11 152 0.0 3.2 0.00 0.23 0.23 84 1009.4
20260506145220 11 151 1.6 8.0 0.00 0.23 0.23 84 1009.4
20260506144719 11 155 4.8 8.0 0.00 0.23 0.23 84 1009.4
20260506144217 11 154 4.8 6.4 0.00 0.23 0.23 84 1009.4
20260506143714 11 147 1.6 3.2 0.00 0.23 0.23 84 1009.3
20260506143233 11 150 1.6 1.6 0.00 0.23 0.23 84 1009.3
20260506142727 11 155 0.0 3.2 0.00 0.23 0.23 84 1009.3
20260506142223 11 156 1.6 14.5 0.00 0.23 0.23 84 1009.3
20260506141716 11 150 8.0 14.5 0.00 0.23 0.23 84 1009.3
20260506141232 11 148 0.0 8.0 0.00 0.23 0.23 85 1009.2
20260506140715 11 153 0.0 8.0 0.00 0.23 0.23 85 1009.2
20260506140221 11 153 1.6 1.6 0.00 0.23 0.23 85 1009.1
20260506135734 11 153 1.6 9.7 0.00 0.23 0.23 85 1009.1
20260506135228 11 153 4.8 9.7 0.00 0.23 0.23 85 1009.1
20260506134730 11 149 0.0 0.0 0.00 0.23 0.23 86 1009.1
20260506134229 11 155 0.0 1.6 0.00 0.23 0.23 86 1009.1
20260506133724 10 155 1.6 1.6 0.00 0.23 0.23 87 1009.1
20260506133226 10 155 0.0 1.6 0.00 0.23 0.23 87 1009.1
20260506132717 10 155 1.6 1.6 0.03 0.23 0.23 88 1009.0
20260506132233 10 155 0.0 0.0 0.05 0.23 0.23 88 1009.0
20260506131729 10 155 0.0 0.0 0.08 0.23 0.23 88 1009.1
20260506131230 10 155 0.0 0.0 0.08 0.23 0.23 88 1009.1
20260506130713 10 155 0.0 3.2 0.10 0.23 0.23 88 1009.1
20260506130219 10 154 1.6 3.2 0.13 0.23 0.23 88 1009.1
20260506125718 10 153 0.0 0.0 0.15 0.23 0.23 88 1009.1
20260506125233 10 160 0.0 0.0 0.15 0.23 0.23 88 1009.1
20260506124734 10 161 0.0 0.0 0.15 0.23 0.23 88 1009.1
20260506124216 10 161 0.0 0.0 0.15 0.23 0.23 88 1009.0
20260506123730 10 160 0.0 0.0 0.18 0.23 0.23 88 1009.0
20260506123224 10 153 0.0 0.0 0.18 0.23 0.23 88 1009.0
20260506122723 10 142 0.0 8.0 0.18 0.23 0.23 88 1008.8
20260506122221 10 155 4.8 8.0 0.15 0.20 0.20 88 1008.8
20260506121716 10 153 0.0 1.6 0.13 0.15 0.15 88 1008.7
20260506121217 10 151 1.6 11.3 0.13 0.15 0.15 88 1008.7
20260506120716 10 170 6.4 11.3 0.10 0.15 0.15 88 1008.7
20260506120215 10 150 0.0 0.0 0.08 0.13 0.13 88 1008.7
20260506115727 10 150 0.0 16.1 0.05 0.10 0.10 88 1008.6
20260506115225 10 62 8.0 16.1 0.05 0.10 0.10 88 1008.6
20260506114726 10 150 0.0 0.0 0.05 0.08 0.08 88 1008.5
20260506114219 10 155 0.0 0.0 0.05 0.08 0.08 88 1008.5
20260506113716 10 140 0.0 3.2 0.03 0.05 0.05 88 1008.3
20260506113213 11 151 3.2 12.9 0.03 0.05 0.05 87 1008.1
20260506112730 11 139 8.0 12.9 0.00 0.05 0.05 87 1008.1
20260506112225 11 157 1.6 12.9 0.00 0.05 0.05 86 1007.9
20260506111725 11 157 6.4 12.9 0.00 0.05 0.05 86 1007.7
20260506111226 12 142 0.0 1.6 0.00 0.05 0.05 86 1007.6
20260506110720 12 99 1.6 1.6 0.00 0.08 0.05 85 1007.5
20260506110215 12 148 0.0 4.8 0.00 0.08 0.05 85 1007.5
20260506105731 12 153 3.2 4.8 0.00 0.08 0.05 85 1007.4
20260506105223 12 148 0.0 0.0 0.03 0.08 0.05 85 1007.4
20260506104719 12 147 0.0 0.0 0.03 0.08 0.05 85 1007.4
20260506104232 12 148 0.0 0.0 0.03 0.08 0.05 84 1007.4
20260506103728 12 148 0.0 0.0 0.03 0.08 0.05 84 1007.4
20260506103220 12 153 0.0 0.0 0.03 0.08 0.05 85 1007.3
20260506102718 12 153 0.0 1.6 0.03 0.08 0.05 85 1007.3
20260506102220 12 153 1.6 1.6 0.03 0.08 0.05 85 1007.3
20260506101723 12 153 0.0 0.0 0.03 0.08 0.05 85 1007.3
20260506101220 12 153 0.0 0.0 0.05 0.08 0.05 85 1007.2
20260506100731 12 153 0.0 0.0 0.05 0.08 0.05 86 1007.3
20260506100223 12 153 0.0 0.0 0.05 0.08 0.05 86 1007.2
20260506095718 12 155 0.0 0.0 0.05 0.08 0.05 86 1007.1
20260506095220 12 159 0.0 0.0 0.03 0.05 0.03 87 1007.0
20260506094722 12 159 0.0 0.0 0.03 0.05 0.03 86 1007.1
20260506094225 12 159 0.0 0.0 0.03 0.05 0.03 87 1007.1
20260506093723 12 159 0.0 0.0 0.03 0.05 0.03 87 1007.2
20260506093230 12 159 0.0 0.0 0.03 0.05 0.03 86 1007.2
20260506092725 12 159 0.0 0.0 0.03 0.05 0.03 86 1007.2
20260506092225 12 159 0.0 0.0 0.03 0.05 0.03 87 1007.2
20260506091720 11 159 0.0 0.0 0.03 0.05 0.03 87 1007.1
20260506091216 11 159 0.0 0.0 0.00 0.05 0.00 86 1007.0
20260506090734 11 159 0.0 0.0 0.00 0.05 0.00 86 1006.9
20260506090227 11 159 0.0 0.0 0.00 0.05 0.00 86 1006.9
20260506085725 11 159 0.0 0.0 0.00 0.05 0.00 86 1006.9
20260506085223 11 159 0.0 0.0 0.00 0.05 0.00 86 1006.9
20260506084717 12 159 0.0 0.0 0.00 0.05 0.00 85 1006.9
20260506084223 12 159 0.0 0.0 0.00 0.05 0.00 85 1006.9
20260506083720 12 159 0.0 0.0 0.00 0.05 0.00 84 1006.8
20260506083230 12 159 0.0 0.0 0.00 0.05 0.00 84 1006.8
20260506082726 12 159 0.0 0.0 0.00 0.05 0.00 84 1006.9
20260506082222 12 159 0.0 0.0 0.00 0.05 0.00 84 1006.9
20260506081721 12 159 0.0 0.0 0.00 0.05 0.00 85 1006.9
20260506081219 12 159 0.0 0.0 0.00 0.05 0.00 85 1006.9
20260506080716 12 159 0.0 0.0 0.00 0.05 0.00 86 1006.8
20260506080221 11 159 0.0 0.0 0.00 0.05 0.00 86 1006.8
20260506073221 11 159 0.0 0.0 0.00 0.05 0.00 88 1006.8
20260506072728 11 159 0.0 0.0 0.00 0.05 0.00 88 1006.8
20260506072231 11 159 0.0 0.0 0.00 0.05 0.00 88 1006.8
20260506071732 11 159 0.0 0.0 0.00 0.05 0.00 88 1006.9
20260506071228 11 159 0.0 0.0 0.00 0.05 0.00 88 1006.9
20260506070729 11 159 0.0 0.0 0.00 0.05 0.00 88 1006.9
20260506070227 11 159 0.0 0.0 0.00 0.05 0.00 88 1006.9
20260506062224 10 159 0.0 0.0 0.00 0.05 0.00 88 1006.8
20260506061725 10 159 0.0 0.0 0.00 0.05 0.00 88 1006.8
20260506061223 10 159 0.0 0.0 0.00 0.05 0.00 88 1006.9
20260506060721 10 159 0.0 0.0 0.00 0.05 0.00 88 1006.9
20260506060225 9 159 0.0 0.0 0.00 0.05 0.00 88 1006.9
20260506051223 8 159 0.0 0.0 0.00 0.05 0.00 92 1007.1
20260506050723 8 159 0.0 0.0 0.00 0.05 0.00 88 1007.2
20260506050223 8 159 0.0 0.0 0.00 0.05 0.00 92 1007.0
20260506044716 8 159 0.0 0.0 0.00 0.05 0.00 88 1007.0
20260506044229 8 159 0.0 0.0 0.00 0.05 0.00 88 1007.0
20260506043723 8 159 0.0 0.0 0.00 0.05 0.00 88 1007.0
20260506043216 9 159 0.0 0.0 0.00 0.05 0.00 88 1007.0
20260506042720 8 159 0.0 0.0 0.00 0.05 0.00 88 1007.0
20260506042219 8 159 0.0 0.0 0.00 0.05 0.00 88 1007.0
20260506041713 9 159 0.0 0.0 0.00 0.05 0.00 88 1007.1
20260506041216 9 159 0.0 0.0 0.00 0.05 0.00 88 1007.0
20260506040731 9 159 0.0 0.0 0.00 0.05 0.00 88 1007.0
20260506040218 9 159 0.0 0.0 0.00 0.05 0.00 88 1007.0
20260506035718 9 159 0.0 0.0 0.00 0.05 0.00 88 1007.0
20260506035215 9 159 0.0 0.0 0.00 0.05 0.00 88 1007.2
20260506034715 9 159 0.0 0.0 0.00 0.05 0.00 88 1007.2
20260506034216 9 159 0.0 0.0 0.00 0.05 0.00 88 1007.3
20260506033718 9 159 0.0 0.0 0.00 0.05 0.00 88 1007.3
20260506033219 8 159 0.0 0.0 0.00 0.05 0.00 88 1007.3
20260506032717 8 159 0.0 0.0 0.00 0.05 0.00 88 1007.4
20260506032222 8 159 0.0 0.0 0.00 0.05 0.00 88 1007.4
20260506031715 8 159 0.0 0.0 0.00 0.05 0.00 88 1007.5
20260506031230 8 159 0.0 0.0 0.00 0.05 0.00 88 1007.6
20260506030725 8 159 0.0 0.0 0.00 0.05 0.00 88 1007.6
20260506030223 8 159 0.0 0.0 0.00 0.05 0.00 88 1007.6
20260506025722 8 159 0.0 0.0 0.00 0.05 0.00 89 1007.7
20260506025216 8 159 0.0 0.0 0.00 0.05 0.00 89 1007.9
20260506024731 9 159 0.0 0.0 0.00 0.05 0.00 88 1007.9
20260506024228 8 159 0.0 0.0 0.00 0.05 0.00 88 1007.9
20260506023726 8 159 0.0 0.0 0.00 0.05 0.00 89 1007.9
20260506023224 9 159 0.0 0.0 0.00 0.05 0.00 88 1008.0
20260506022724 9 159 0.0 0.0 0.00 0.05 0.00 88 1008.0
20260506022226 9 159 0.0 0.0 0.00 0.05 0.00 88 1008.0
20260506021721 9 159 0.0 0.0 0.00 0.05 0.00 88 1008.1
20260506021221 9 159 0.0 0.0 0.00 0.05 0.00 89 1008.0
20260506020719 9 159 0.0 0.0 0.00 0.05 0.00 88 1008.0
20260506020222 9 159 0.0 0.0 0.00 0.05 0.00 88 1008.0
20260506015733 9 159 0.0 0.0 0.00 0.05 0.00 88 1008.0
20260506015228 10 159 0.0 0.0 0.00 0.05 0.00 88 1008.1
20260506014726 10 159 0.0 0.0 0.00 0.05 0.00 88 1008.3
20260506014221 10 159 0.0 0.0 0.00 0.05 0.00 88 1008.3
20260506013720 10 159 0.0 0.0 0.00 0.05 0.00 88 1008.5
20260506013217 10 159 0.0 0.0 0.00 0.05 0.00 88 1008.5
20260506012712 10 159 0.0 0.0 0.00 0.05 0.00 88 1008.6
20260506012234 10 159 0.0 0.0 0.00 0.05 0.00 88 1008.7
20260506011731 10 159 0.0 0.0 0.00 0.05 0.00 88 1008.8
20260506011230 10 159 0.0 0.0 0.00 0.05 0.00 88 1008.9
20260506010723 10 159 0.0 0.0 0.00 0.05 0.00 88 1008.9
20260506010225 10 159 0.0 0.0 0.00 0.05 0.00 88 1008.9
20260506005724 10 159 0.0 0.0 0.00 0.05 0.00 88 1009.0
20260506005222 10 159 0.0 0.0 0.00 0.05 0.00 88 1008.9
20260506004722 10 159 0.0 0.0 0.00 0.05 0.00 88 1008.9
20260506004217 10 159 0.0 0.0 0.00 0.05 0.00 88 1009.0
20260506003735 10 159 0.0 0.0 0.00 0.05 0.00 88 1009.1
20260506003230 10 159 0.0 0.0 0.00 0.05 0.00 88 1009.1
20260506002727 10 159 0.0 0.0 0.00 0.05 0.00 88 1009.1
20260506002226 10 159 0.0 0.0 0.00 0.05 0.00 88 1009.3
20260506001727 10 159 0.0 0.0 0.00 0.05 0.00 88 1009.3
20260506001223 10 159 0.0 0.0 0.00 0.05 0.00 88 1009.3
20260506000733 10 159 0.0 0.0 0.00 0.05 0.00 88 1009.2
20260506000222 10 159 0.0 0.0 0.00 0.05 0.00 88 1009.2
20260505235724 10 159 0.0 0.0 0.00 0.05 0.00 88 1009.3
20260505235225 10 159 0.0 0.0 0.00 0.05 0.00 88 1009.3
20260505234720 10 159 0.0 0.0 0.00 0.05 0.00 88 1009.4
20260505234219 10 159 0.0 0.0 0.00 0.05 0.00 88 1009.4
20260505233715 10 159 0.0 0.0 0.00 0.05 0.00 88 1009.5
20260505233216 10 159 0.0 0.0 0.00 0.05 0.00 88 1009.6
20260505232730 10 159 0.0 0.0 0.00 0.05 0.00 88 1009.6
20260505232229 10 159 0.0 0.0 0.00 0.05 0.00 88 1009.6
20260505231725 10 159 0.0 0.0 0.00 0.05 0.00 88 1009.7
20260505231222 10 159 0.0 0.0 0.00 0.05 0.00 88 1009.7
20260505230716 10 159 0.0 0.0 0.00 0.05 0.00 88 1009.8
20260505230215 10 159 0.0 0.0 0.00 0.05 0.00 88 1009.8
20260505225732 10 159 0.0 0.0 0.00 0.05 0.00 88 1009.9
20260505225230 10 159 0.0 0.0 0.00 0.05 0.00 88 1009.8
20260505224717 10 159 0.0 0.0 0.00 0.05 0.00 88 1009.8
20260505224215 10 159 0.0 0.0 0.00 0.05 0.00 88 1009.8
20260505223730 10 159 0.0 0.0 0.00 0.05 0.00 88 1009.9
20260505223230 10 159 0.0 0.0 0.00 0.05 0.00 88 1009.8
20260505222725 10 159 0.0 0.0 0.00 0.05 0.00 88 1009.8
20260505222221 10 159 0.0 0.0 0.00 0.05 0.00 88 1009.8
20260505221718 10 159 0.0 0.0 0.00 0.05 0.00 88 1009.8
20260505221215 10 159 0.0 0.0 0.00 0.05 0.00 88 1009.8
20260505220729 10 159 0.0 0.0 0.00 0.05 0.00 88 1009.8
20260505220234 10 159 0.0 0.0 0.00 0.05 0.00 88 1009.8
20260505215729 10 159 0.0 0.0 0.00 0.05 0.05 88 1009.9
20260505215225 10 159 0.0 0.0 0.00 0.05 0.05 88 1009.9
20260505214727 10 159 0.0 0.0 0.00 0.05 0.05 88 1009.8
20260505214222 10 159 0.0 0.0 0.00 0.05 0.05 88 1009.9
20260505213716 10 159 0.0 0.0 0.00 0.05 0.05 88 1009.9
20260505213217 10 159 0.0 0.0 0.00 0.05 0.05 88 1009.9
20260505212714 10 159 0.0 0.0 0.00 0.05 0.05 88 1009.9
20260505212221 10 159 0.0 0.0 0.00 0.05 0.05 88 1010.0
20260505211717 10 159 0.0 0.0 0.00 0.05 0.05 88 1010.1
20260505211233 10 159 0.0 0.0 0.00 0.05 0.05 88 1010.1
20260505210730 10 159 0.0 0.0 0.00 0.05 0.05 87 1010.0
20260505210226 10 159 0.0 0.0 0.00 0.05 0.05 88 1010.0
20260505205725 11 159 0.0 0.0 0.00 0.05 0.05 88 1010.0
20260505205220 11 159 0.0 0.0 0.00 0.05 0.05 87 1010.0
20260505204736 11 159 0.0 0.0 0.00 0.05 0.05 87 1010.1
20260505204227 11 159 0.0 0.0 0.00 0.05 0.05 87 1010.2
20260505203723 11 159 0.0 0.0 0.00 0.05 0.05 87 1010.1
20260505203220 11 159 0.0 0.0 0.00 0.05 0.05 87 1010.0
20260505202732 11 159 0.0 0.0 0.00 0.05 0.05 88 1009.9
20260505202227 11 159 0.0 0.0 0.00 0.05 0.05 87 1009.9
20260505201724 11 159 0.0 0.0 0.00 0.05 0.05 87 1009.8
20260505201215 11 159 0.0 0.0 0.00 0.05 0.05 87 1009.8
20260505200713 11 159 0.0 0.0 0.00 0.05 0.05 87 1009.7
20260505200224 11 159 0.0 0.0 0.00 0.05 0.05 87 1009.7
20260505195725 11 159 0.0 0.0 0.00 0.05 0.05 87 1009.6
20260505195234 11 159 0.0 0.0 0.00 0.05 0.05 87 1009.6
20260505194729 11 159 0.0 0.0 0.00 0.05 0.05 87 1009.6
20260505194224 11 159 0.0 0.0 0.00 0.05 0.05 86 1009.5
20260505193726 11 159 0.0 0.0 0.00 0.05 0.05 86 1009.5
20260505193225 12 159 0.0 0.0 0.00 0.05 0.05 86 1009.5
20260505192723 12 159 0.0 0.0 0.00 0.05 0.05 86 1009.5
20260505192224 12 161 0.0 0.0 0.00 0.05 0.05 85 1009.5
20260505191723 12 161 0.0 0.0 0.00 0.05 0.05 85 1009.3
20260505191223 12 161 0.0 0.0 0.00 0.05 0.05 85 1009.2
20260505190725 12 161 0.0 0.0 0.00 0.05 0.05 84 1009.2
20260505190221 12 161 0.0 0.0 0.00 0.05 0.05 84 1009.0
20260505185734 13 161 0.0 0.0 0.00 0.05 0.05 83 1008.9
20260505185229 13 161 0.0 0.0 0.00 0.05 0.05 83 1008.9
20260505184715 13 161 0.0 0.0 0.00 0.05 0.05 82 1008.9
20260505184233 13 161 0.0 0.0 0.00 0.05 0.05 81 1008.9
20260505183727 14 161 0.0 0.0 0.00 0.05 0.05 80 1008.9
20260505183229 14 161 0.0 0.0 0.00 0.05 0.05 79 1008.9
20260505182721 14 161 0.0 0.0 0.00 0.05 0.05 78 1008.9
20260505182225 15 161 0.0 0.0 0.00 0.05 0.05 77 1008.9
20260505181725 15 161 0.0 8.0 0.00 0.05 0.05 77 1008.9
20260505181223 15 161 4.8 8.0 0.00 0.05 0.05 77 1008.9
20260505180717 15 161 4.8 8.0 0.00 0.05 0.05 76 1009.0
20260505180227 15 161 0.0 0.0 0.00 0.05 0.05 76 1009.0
20260505175722 15 161 0.0 3.2 0.00 0.05 0.05 78 1008.9
20260505175233 15 161 1.6 9.7 0.00 0.05 0.05 78 1008.9
20260505174730 15 161 4.8 9.7 0.00 0.05 0.05 79 1008.9
20260505174224 15 155 0.0 0.0 0.00 0.05 0.05 80 1009.0
20260505173722 14 155 0.0 0.0 0.00 0.05 0.05 80 1009.0
20260505173215 14 154 0.0 0.0 0.00 0.05 0.05 80 1009.0
20260505172719 14 159 0.0 0.0 0.00 0.05 0.05 81 1009.0
20260505172216 14 146 0.0 0.0 0.00 0.05 0.05 82 1008.9
20260505171734 13 145 0.0 0.0 0.00 0.05 0.05 82 1008.8
20260505171229 13 145 0.0 0.0 0.00 0.05 0.05 82 1008.7
20260505170728 13 144 0.0 0.0 0.00 0.05 0.05 82 1008.7
20260505170229 13 144 0.0 0.0 0.00 0.05 0.05 82 1008.7
20260505165731 13 144 0.0 0.0 0.00 0.05 0.05 82 1008.8
20260505165230 13 143 0.0 0.0 0.00 0.05 0.05 82 1008.7
20260505164730 13 143 0.0 0.0 0.00 0.05 0.05 82 1008.7
20260505164229 13 143 0.0 0.0 0.00 0.05 0.05 82 1008.7
20260505163728 13 143 0.0 0.0 0.00 0.05 0.05 81 1008.8
20260505163227 13 143 0.0 0.0 0.00 0.05 0.05 81 1008.8
20260505162727 13 143 0.0 0.0 0.00 0.05 0.05 80 1008.9
20260505162213 13 142 0.0 0.0 0.00 0.05 0.05 80 1008.8
20260505161716 13 154 0.0 3.2 0.00 0.05 0.05 80 1008.9
20260505161215 13 152 1.6 3.2 0.00 0.05 0.05 80 1009.0
20260505160716 13 147 0.0 0.0 0.00 0.00 0.05 81 1008.9